Regional Weather Roundup
Issued by NWS

Home | Current Version | Previous Version | Text Only | Print | Product List | Glossary Off
Versions: 1 2 3 4 5 6 7 8 9 10 11 12 13 14 15 16 17 18 19 20 21 22 23 24 25 26 27 28 29 30 31 32 33 34 35 36 37 38 39 40 41 42 43 44 45 46 47 48 49 50

000
ASUS45 KCYS 312310
RWRWY

WYOMING REGIONAL WEATHER ROUNDUP
NATIONAL WEATHER SERVICE CHEYENNE WY
500 PM MDT TUE MAY 31 2016

NOTE:  "FAIR" INDICATES FEW OR NO CLOUDS BELOW 12,000 FEET
WITH NO SIGNIFICANT WEATHER AND/OR OBSTRUCTIONS TO VISIBILITY.

WYZ001-010000-
YELLOWSTONE NATIONAL PARK

CITY           SKY/WX    TMP DP  RH WIND       PRES   REMARKS
LK YELLOWSTONE   N/A     53  25  33 VRB3      30.23F
W YELLOWSTONE  NOT AVBL

$$
WYZ002>013-054>058-071-098>099-010000-
NORTHERN WYOMING

CITY           SKY/WX    TMP DP  RH WIND       PRES   REMARKS
JACKSON        SUNNY     63  19  19 SW8G18    30.13F
CODY           FAIR      61  36  39 NE9       30.13S
GREYBULL       FAIR      68  28  22 NW22      30.06F
WORLAND        FAIR      68  32  26 N12       30.08F
SHERIDAN       FAIR      61  41  47 NW21G31   30.13F
BUFFALO        CLOUDY    55  38  52 N26G38    30.13F
GILLETTE       PTSUNNY   57  40  52 NW25G31   30.10S
HULETT         CLOUDY    50  43  76 NW14G29   30.10S
NEWCASTLE      FAIR      55  36  47 NW24G33   30.08S

$$
WYZ014>020-022>026-101>103-010000-
CENTRAL WYOMING

CITY           SKY/WX    TMP DP  RH WIND       PRES   REMARKS
BIG PINEY      FAIR      66  25  21 W15       30.13F
PINEDALE       FAIR      63  23  22 NW7       30.14F
DUBOIS         FAIR      61  30  31 SE16G23   30.12F
LANDER         FAIR      65  36  34 E10       30.08F
RIVERTON       FAIR      65  31  28 VRB7G16   30.11S
CASPER         FAIR      64  27  24 N9        30.11S
DOUGLAS          N/A    N/A N/A N/A MISG      30.10S

$$
WYZ021-027>030-104>119-010000-
SOUTHERN WYOMING

CITY           SKY/WX    TMP DP  RH WIND       PRES   REMARKS
EVANSTON       CLOUDY    65  33  30 NW3       30.14F
KEMMERER         N/A     64  28  25 NW12G20   30.15F
FORT BRIDGER   PTCLDY    68  30  24 CALM      30.16F
ROCK SPRINGS   PTSUNNY   67  27  22 NW8       30.11F
DIXON          FAIR      67  33  28 N9        30.12F
RAWLINS        FAIR      64  30  27 N13       30.13F
SARATOGA       FAIR      63  32  31 NW12G21   30.14F
LARAMIE        FAIR      57  29  34 N14       30.14S
CHEYENNE       CLOUDY    58  43  57 SE3       30.11S
TORRINGTON     FAIR      70  23  17 N15G29    30.02F
PINE BLUFFS    FAIR      61  46  59 SE8       30.08F

$$



USA.gov is the U.S. government's official web portal to all federal, state and local government web resources and services.